Location: Newark
(15.4608°S, 41.1635°W)
Time: 00:00:33
(UTC+00:00)

Transit 4A - Visible Passes

Search period start: 31 July 2021 00:00
Search period end: 10 August 2021 00:00
Orbit: 872 x 972 km, 66.8° (Epoch: 30 July)

Date Brightness Start Highest point End Pass type
(mag) Time Alt. Az. Time Alt. Az. Time Alt. Az.
08 Aug 9.5 21:39:36 10° SSE 21:41:39 16° SE 21:41:39 16° SE visible
08 Aug 10.2 23:24:15 10° SW 23:25:17 15° SW 23:25:17 15° SW visible
09 Aug 8.6 21:47:48 10° S 21:52:50 30° ESE 21:52:50 30° ESE visible
09 Aug 10.1 23:34:18 10° SW 23:36:31 19° WSW 23:36:31 19° WSW visible
